Location: Ashtead
(51.3000°N, 0.3000°W)
Time: 19:56:49
(UTC+00:00)

Cosmos 2333 - Pass Details

Date: 26 September 2023
Orbit: 828 x 866 km, 70.9° (Epoch: 09 December)

Event Time Altitude Azimuth Distance (km) Brightness Sun altitude
Rises 04:12:30 0° 328° (NNW) 3,421 7.2 -16.3°
Reaches altitude 10° 04:14:58 10° 326° (NW) 2,487 6.5 -15.9°
Maximum altitude 04:20:38 68° 245° (WSW) 925 4.2 -15.1°
Drops below altitude 10° 04:26:19 10° 164° (SSE) 2,494 6.7 -14.2°
Sets 04:28:47 0° 161° (SSE) 3,430 7.4 -13.8°
